"Time","Temp","Dewpoint","Humidity","Pressure","Direction","Speed","Gust","Precip","PrecipRate"
"00:04:59","38.7","27.5","63.8","29.89","285","6.2","17.3","0.00","0.00"
"00:09:58","38.6","27.2","63.1","29.89","311","8.6","24.2","0.00","0.00"
"00:14:58","38.5","26.6","62","29.90","314","7.3","19.2","0.00","0.00"
"00:19:56","38.2","26.3","62","29.90","321","8.7","19.6","0.00","0.00"
"00:24:56","38","26.1","62","29.90","322","7.7","17.3","0.00","0.00"
"00:29:56","37.7","24.9","59.6","29.90","322","9.1","24.2","0.00","0.00"
"00:34:58","37.4","23.6","57.3","29.90","316","8.9","20.7","0.00","0.00"
"00:39:59","37.1","22.8","55.9","29.90","311","7.7","25.3","0.00","0.00"
"00:44:59","37","21.9","54","29.90","316","9.8","23","0.00","0.00"
"00:49:56","36.8","21.7","54","29.90","311","9.5","28.8","0.00","0.00"
"00:54:57","36.6","21.6","54.2","29.90","327","7.6","19.6","0.00","0.00"
"00:59:57","36.4","21.7","54.9","29.90","309","8.3","20.7","0.00","0.00"
"01:04:57","36.2","21.8","55.5","29.90","299","5","12.7","0.00","0.00"
"01:09:56","35.9","21.6","55.8","29.90","299","5.2","16.1","0.00","0.00"
"01:14:57","35.7","21.5","56","29.90","306","6.7","15","0.00","0.00"
"01:19:57","35.5","21.5","56.3","29.90","307","4.1","12","0.00","0.00"
"01:24:57","35.3","21.4","56.8","29.90","304","3.7","7.2","0.00","0.00"
"01:29:58","35.1","21.4","57.2","29.90","288","4.7","17.3","0.00","0.00"
"01:34:56","35","21.7","57.9","29.90","307","3.6","17.3","0.00","0.00"
"01:39:58","34.9","21.6","58","29.90","273","2.9","7.2","0.00","0.00"
"01:44:58","34.8","21.6","58.1","29.90","266","3.4","8.4","0.00","0.00"
"01:49:58","34.8","21.8","58.8","29.90","263","4.1","7.2","0.00","0.00"
"01:54:58","34.6","21.6","58.7","29.90","247","3.8","15","0.00","0.00"
"01:59:58","34.5","21.4","58.6","29.90","263","4.4","14.4","0.00","0.00"
"02:04:58","34.5","21.4","58.4","29.90","294","6.1","18","0.00","0.00"
"02:09:57","34.6","21.2","57.8","29.90","280","4.7","18.4","0.00","0.00"
"02:14:57","34.6","21.2","57.8","29.90","271","4.9","13.2","0.00","0.00"
"02:19:57","34.5","21.2","57.9","29.89","276","4.8","15","0.00","0.00"
"02:24:56","34.6","21.1","57.6","29.89","286","5.9","17.3","0.00","0.00"
"02:29:59","34.6","21","57.2","29.89","263","7.6","15.6","0.00","0.00"
"02:34:59","34.6","20.9","57","29.89","275","6.4","15.6","0.00","0.00"
"02:39:56","34.6","20.9","57","29.89","288","5.4","18","0.00","0.00"
"02:44:56","34.6","20.7","56.5","29.89","284","6.5","15","0.00","0.00"
"02:49:56","34.5","20.8","56.8","29.89","271","6.7","18.4","0.00","0.00"
"02:54:56","34.5","20.7","56.7","29.89","301","7.8","19.6","0.00","0.00"
"02:59:58","34.6","20.4","55.8","29.89","298","7.7","23","0.00","0.00"
"03:04:56","34.7","20.4","55.6","29.89","258","6.1","15","0.00","0.00"
"03:09:59","34.6","20.5","55.8","29.89","294","7.2","18.4","0.00","0.00"
"03:14:58","34.5","20.5","56.2","29.89","268","3.9","8.1","0.00","0.00"
"03:19:58","34.4","20.3","56","29.89","288","5.7","13.2","0.00","0.00"
"03:24:58","34.5","20.4","56.2","29.89","267","5.1","14.4","0.00","0.00"
"03:29:57","34.4","20.4","56.3","29.89","298","5.5","14.4","0.00","0.00"
"03:34:57","34.2","20.6","57.4","29.88","252","3.7","7.2","0.00","0.00"
"03:39:57","33.9","20.7","57.9","29.88","303","2.6","6","0.00","0.00"
"03:44:57","33.7","20.6","58.2","29.88","273","4.6","16.1","0.00","0.00"
"03:49:56","33.7","20.5","58","29.87","306","4.4","12","0.00","0.00"
"03:54:59","33.8","20.6","58","29.87","306","4.2","13.2","0.00","0.00"
"03:59:58","33.8","20.6","58","29.87","316","3.7","8.4","0.00","0.00"
"04:04:59","33.6","20.5","58.2","29.87","291","4.2","12","0.00","0.00"
"04:09:58","33.6","20.5","58.3","29.87","285","4.7","13.2","0.00","0.00"
"04:14:56","33.6","20.6","58.4","29.87","289","4.7","15","0.00","0.00"
"04:19:56","33.8","20.6","58","29.87","309","5","10.8","0.00","0.00"
"04:24:56","33.7","20.8","58.7","29.87","261","3.7","10.4","0.00","0.00"
"04:29:59","33.4","21","60","29.87","267","6.4","16.1","0.00","0.00"
"04:34:59","33.6","21.1","59.8","29.87","278","5","15","0.00","0.00"
"04:39:59","33.7","21.3","60.1","29.87","269","4.3","8.4","0.00","0.00"
"04:44:59","33.5","21.3","60.5","29.87","277","4.9","15","0.00","0.00"
"04:49:56","33.4","21.2","60.5","29.87","282","6.7","18.4","0.00","0.00"
"04:54:59","33.6","21.3","60.1","29.87","275","6.4","15","0.00","0.00"
"04:59:59","33.6","21.3","60.2","29.87","263","4.8","12.7","0.00","0.00"
"05:04:56","33.5","21.3","60.4","29.86","285","3.9","17.3","0.00","0.00"
"05:09:59","33.4","21.4","61","29.86","279","4.2","10.8","0.00","0.00"
"05:14:59","33.3","21.3","61","29.86","259","5.9","12","0.00","0.00"
"05:19:59","33.4","21.2","60.5","29.86","272","5","13.2","0.00","0.00"
"05:24:58","33.5","21.2","60.2","29.86","300","8.2","19.6","0.00","0.00"
"05:29:58","33.8","21.4","60","29.86","270","6.3","20.7","0.00","0.00"
"05:34:58","33.8","21.4","60","29.86","296","6.8","17.3","0.00","0.00"
"05:39:57","33.9","21.5","60","29.86","286","6.4","17.3","0.00","0.00"
"05:44:57","33.9","21.6","60.2","29.87","274","6.8","15","0.00","0.00"
"05:49:56","34","21.6","60","29.87","295","7.1","19.6","0.00","0.00"
"05:54:56","34.2","21.8","60.2","29.87","286","7.7","16.8","0.00","0.00"
"05:59:59","34.3","22","60.6","29.87","260","5.2","15","0.00","0.00"
"06:04:59","34.2","22.1","61","29.87","275","7.1","15.6","0.00","0.00"
"06:09:58","34.3","22.3","61.2","29.87","270","7.3","16.1","0.00","0.00"
"06:14:59","34.3","22.2","61","29.88","286","6.1","15","0.00","0.00"
"06:19:59","34.3","22.4","61.5","29.88","280","4.5","15","0.00","0.00"
"06:24:59","34.1","22.4","62","29.88","256","5","17.3","0.00","0.00"
"06:29:59","33.9","22.4","62.4","29.88","266","5.5","21.9","0.00","0.00"
"06:34:58","33.8","22.5","63","29.87","269","7.8","21.9","0.00","0.00"
"06:39:59","33.9","22.6","63","29.87","293","10.4","23","0.00","0.00"
"06:44:58","34.1","22.8","63","29.88","305","9.3","24.2","0.00","0.00"
"06:49:58","34.1","22.8","63","29.88","299","9.6","26.5","0.00","0.00"
"06:54:58","34.1","22.7","62.7","29.88","289","11.5","30","0.00","0.00"
"06:59:58","34.1","22.6","62.4","29.89","292","8.1","25.3","0.00","0.00"
"07:04:58","33.9","22.6","63","29.89","301","8.7","19.2","0.00","0.00"
"07:09:58","33.8","22.5","63","29.89","286","6.5","19.6","0.00","0.00"
"07:14:58","33.6","22.3","63","29.90","308","6.4","15.6","0.00","0.00"
"07:19:58","33.6","22.1","62.4","29.90","278","7.1","18","0.00","0.00"
"07:24:58","33.7","22.1","62","29.90","304","5.4","20.4","0.00","0.00"
"07:29:58","33.7","21.9","61.7","29.90","303","7.4","20.7","0.00","0.00"
"07:34:59","33.7","21.7","61","29.90","313","8.3","21.9","0.00","0.00"
"07:39:59","33.7","21.7","61","29.90","281","6.2","15","0.00","0.00"
"07:44:59","33.5","21.6","61.2","29.90","288","6.1","16.1","0.00","0.00"
"07:49:59","33.5","21.3","60.6","29.90","285","6.2","17.3","0.00","0.00"
"07:54:59","33.5","21","59.8","29.90","261","7.1","15","0.00","0.00"
"07:59:59","33.5","20.9","59.5","29.90","296","5.9","19.2","0.00","0.00"
"08:04:59","33.7","20.5","57.9","29.90","303","9.3","19.6","0.00","0.00"
"08:09:57","34","20.3","57","29.90","288","7.9","21.9","0.00","0.00"
"08:14:58","34.3","20.4","56.4","29.91","306","8","20.7","0.00","0.00"
"08:19:58","34.5","20.5","56.2","29.91","310","8.2","23","0.00","0.00"
"08:24:57","34.7","20.6","56","29.91","310","6.8","21.9","0.00","0.00"
"08:29:58","34.9","20.7","56","29.92","288","8.9","18.4","0.00","0.00"
"08:34:58","35","20.6","55.5","29.92","292","8.5","18.4","0.00","0.00"
"08:39:58","35","20.5","55","29.92","282","10.5","23","0.00","0.00"
"08:44:58","35.2","20.6","54.9","29.92","308","7.4","18.4","0.00","0.00"
"08:49:58","35.4","20.6","54.4","29.92","300","10","31.2","0.00","0.00"
"08:54:58","35.5","20.5","54","29.92","299","11.9","31.2","0.00","0.00"
"08:59:58","35.6","20.6","54.2","29.93","290","8.6","24.2","0.00","0.00"
"09:04:58","35.7","20.8","54.2","29.93","279","7.9","18.4","0.00","0.00"
"09:09:57","36","20.8","53.6","29.93","292","8.4","25.3","0.00","0.00"
"09:14:58","36.1","20.7","53.2","29.93","299","8.8","26.5","0.00","0.00"
"09:19:58","35.9","20.2","52.5","29.93","294","11.7","27.6","0.00","0.00"
"09:24:57","36.2","21","53.8","29.93","283","6.7","17.3","0.00","0.00"
"09:29:57","36.5","20.7","52.6","29.94","315","9.6","24.2","0.00","0.00"
"09:34:57","36.3","20.4","52.2","29.94","305","9.2","25.2","0.00","0.00"
"09:39:58","36.3","19.8","51","29.94","297","9","28.8","0.00","0.00"
"09:44:58","36.5","19.8","50.4","29.94","287","11.4","34.8","0.00","0.00"
"09:49:58","36.2","19.2","49.6","29.93","302","14.2","31.2","0.00","0.00"
"09:54:57","36.4","19.4","49.9","29.93","292","9.3","25.3","0.00","0.00"
"09:59:56","36.7","19.2","48.9","29.95","308","12.7","33.6","0.00","0.00"
"10:04:59","36.5","19","48.7","29.95","309","9.3","28.8","0.00","0.00"
"10:09:58","37.1","19.7","49","29.95","270","11.1","28.8","0.00","0.00"
"10:14:58","36.9","19.1","48.2","29.95","298","12.4","25.3","0.00","0.00"
"10:19:58","36.4","18.8","48.5","29.94","336","14.8","37.2","0.00","0.00"
"10:24:57","36.8","19.7","49.6","29.94","324","11.7","34.8","0.00","0.00"
"10:29:57","37.1","19.1","47.9","29.94","315","13.6","34.5","0.00","0.00"
"10:34:57","36.8","18.9","48.1","29.93","310","13.7","38.4","0.00","0.00"
"10:39:57","37.3","20.2","49.7","29.93","297","9.2","32.4","0.00","0.00"
"10:44:57","37.8","19.6","47.5","29.94","317","12.5","30","0.00","0.00"
"10:49:57","37.4","19.4","47.8","29.94","316","12","24.2","0.00","0.00"
"10:54:57","37.7","19.6","47.7","29.94","325","13.8","38.4","0.00","0.00"
"10:59:57","38","19.3","46.6","29.94","307","12.8","31.2","0.00","0.00"
"11:04:57","37.8","19.1","46.4","29.94","290","11.9","31.2","0.00","0.00"
"11:09:56","37.7","18.9","46.4","29.94","322","15.3","32.4","0.00","0.00"
"11:14:56","38.4","19.6","46.5","29.95","319","11","27.6","0.00","0.00"
"11:19:57","38.9","20","46.3","29.95","298","9.1","23","0.00","0.00"
"11:24:57","39.2","19.9","45.5","29.95","313","9.4","23","0.00","0.00"
"11:29:58","39","19.8","45.8","29.95","318","13.1","26.5","0.00","0.00"
"11:34:58","38.9","19.3","45.1","29.94","310","10.7","24.2","0.00","0.00"
"11:39:58","39.2","19.5","44.8","29.94","301","10","25.3","0.00","0.00"
"11:44:58","39.2","19.5","44.7","29.94","325","12.8","25.3","0.00","0.00"
"11:49:58","40.1","20.4","45","29.93","316","10.9","26.5","0.00","0.00"
"11:54:58","39.6","19.4","43.8","29.93","319","14.3","28.8","0.00","0.00"
"11:59:58","39.5","19.1","43.5","29.93","327","14.7","33.6","0.00","0.00"
"12:04:58","39.2","19.1","44.1","29.93","325","16.4","32.4","0.00","0.00"
"12:09:57","39","18.6","43.5","29.93","305","14.4","28.8","0.00","0.00"
"12:14:59","39.3","19.4","44.5","29.93","313","13.6","33.6","0.00","0.00"
"12:19:59","39.9","19.6","43.7","29.93","316","14.3","33.4","0.00","0.00"
"12:24:59","40","19.6","43.5","29.93","302","12.3","28.8","0.00","0.00"
"12:29:58","40","19.9","44.3","29.94","285","12.3","34.8","0.00","0.00"
"12:34:58","40.5","20.3","44","29.94","293","12","28.8","0.00","0.00"
"12:39:58","41.1","20.7","43.8","29.94","269","11.2","28.8","0.00","0.00"
"12:44:59","40.4","20.1","43.7","29.94","324","11.7","25.3","0.00","0.00"
"12:49:59","40.2","19.6","43.2","29.93","317","13.2","37.2","0.00","0.00"
"12:54:59","41.3","21.2","44.4","29.93","277","10.8","25.3","0.00","0.00"
"12:59:58","40.3","19.6","43.1","29.94","300","14","28.8","0.00","0.00"
"13:04:58","40.7","20.6","44.4","29.94","282","12.1","26.5","0.00","0.00"
"13:09:57","40.6","20.2","43.7","29.94","290","12.8","28.8","0.00","0.00"
"13:14:57","41.2","20.9","44","29.94","282","10.1","24.2","0.00","0.00"
"13:19:57","42.1","21.8","44.1","29.93","301","10.7","26.4","0.00","0.00"
"13:24:57","41.8","21.5","44.1","29.93","291","11.8","26.4","0.00","0.00"
"13:29:57","41.9","21.3","43.6","29.93","298","8.9","26.5","0.00","0.00"
"13:34:59","42.3","21.3","42.9","29.93","297","12.2","31.2","0.00","0.00"
"13:39:59","40.3","20.1","44","29.93","305","12.1","31.2","0.00","0.00"
"13:44:56","39.6","19.7","44.5","29.93","318","11.5","24.2","0.00","0.00"
"13:49:56","39.2","19.7","45","29.93","311","14.1","27.6","0.00","0.00"
"13:54:57","40.5","21.6","46.5","29.93","272","10.5","25.2","0.00","0.00"
"13:59:56","40.9","20.7","44.1","29.93","307","12.2","26.5","0.00","0.00"
"14:04:56","40.6","20.6","44.4","29.92","300","14.2","31.2","0.00","0.00"
"14:09:59","40.6","20.6","44.5","29.92","282","13.6","25.3","0.00","0.00"
"14:14:58","40.7","20.8","44.7","29.92","300","13.8","37.2","0.00","0.00"
"14:19:58","40.8","20.9","44.7","29.91","301","14","36.8","0.00","0.00"
"14:24:58","41.2","21.2","44.5","29.91","316","13.9","31.2","0.00","0.00"
"14:29:57","41.5","21.4","44.4","29.92","310","10.3","28.8","0.00","0.00"
"14:34:57","41.1","20.6","43.7","29.92","319","15.3","36","0.00","0.00"
"14:39:57","41.1","21.1","44.5","29.92","301","11.3","32.4","0.00","0.00"
"14:44:57","41.4","21.2","44.4","29.92","285","10.5","33.6","0.00","0.00"
"14:49:56","41.8","21.8","44.7","29.91","303","12","26.5","0.00","0.00"
"14:54:56","41.1","20.8","44.1","29.91","293","11.5","26.5","0.00","0.00"
"14:59:57","41.1","21.2","44.7","29.92","293","9.5","20.7","0.00","0.00"
"15:04:56","40.3","20.8","45.4","29.92","286","9.5","24","0.00","0.00"
"15:09:59","39.3","20.1","45.9","29.92","289","11.4","27.6","0.00","0.00"
"15:14:59","39.4","20.3","46","29.92","299","12","27.6","0.00","0.00"
"15:19:58","39.2","19.9","45.5","29.92","287","12","32.4","0.00","0.00"
"15:24:58","38.7","19.6","45.8","29.92","301","14.2","33.6","0.00","0.00"
"15:29:57","39.6","20.3","45.6","29.93","304","12.6","25.3","0.00","0.00"
"15:34:57","39.7","20.1","45","29.93","288","13.2","30","0.00","0.00"
"15:39:57","40.5","21.1","45.6","29.93","302","11.4","27.6","0.00","0.00"
"15:44:57","40.6","20.8","44.8","29.93","314","12.1","26.5","0.00","0.00"
"15:49:57","40.6","20.9","45","29.92","293","11.9","30","0.00","0.00"
"15:54:57","40.4","20.6","44.8","29.92","325","14.4","29.9","0.00","0.00"
"15:59:56","39.7","20.1","45.1","29.93","315","15.4","34.8","0.00","0.00"
"16:04:59","39.5","20.5","46.1","29.93","291","11.1","32.4","0.00","0.00"
"16:09:58","39.3","20.5","46.7","29.93","317","11","31.2","0.00","0.00"
"16:14:58","39.3","20.4","46.4","29.95","321","13.3","36","0.00","0.00"
"16:19:57","38.9","20.2","46.7","29.95","343","15.8","31.2","0.00","0.00"
"16:24:57","38.7","20.6","47.8","29.95","312","9.5","23","0.00","0.00"
"16:29:56","39.5","21.3","47.8","29.95","320","11.8","32.4","0.00","0.00"
"16:34:59","39.3","20.9","47.5","29.95","324","11.9","32.2","0.00","0.00"
"16:39:59","38.9","20.4","47.2","29.95","313","12.9","28.8","0.00","0.00"
"16:44:59","38.4","20.7","48.5","29.96","279","9.4","20.7","0.00","0.00"
"16:49:59","38","20.5","49","29.96","302","10.1","23","0.00","0.00"
"16:54:58","38.2","21.1","49.9","29.96","269","6.7","19.6","0.00","0.00"
"16:59:58","38","20.7","49.4","29.96","269","11","24.2","0.00","0.00"
"17:04:58","37.4","20.5","50.2","29.96","274","9","17.3","0.00","0.00"
"17:09:57","37.2","20.5","50.6","29.96","310","8.3","19.6","0.00","0.00"
"17:14:57","37.5","20.9","50.8","29.96","300","8.9","25.3","0.00","0.00"
"17:19:56","37.4","20.4","49.8","29.96","296","10.8","26.4","0.00","0.00"
"17:24:56","37.2","20.1","49.5","29.96","283","9.5","25.3","0.00","0.00"
"17:29:56","38.1","20.9","49.6","29.97","275","8.7","28.8","0.00","0.00"
"17:34:57","38.5","20.6","48.3","29.97","297","8.7","30","0.00","0.00"
"17:39:56","38.3","20.6","48.5","29.97","306","10.5","26.5","0.00","0.00"
"17:44:56","38.1","20.3","48.2","29.97","298","10.7","25.2","0.00","0.00"
"17:49:59","38.2","19.9","47.5","29.97","326","10.7","26.5","0.00","0.00"
"17:54:58","38.1","20.3","48.4","29.97","277","9.3","24.2","0.00","0.00"
"17:59:58","38","20.2","48.3","29.97","284","12.4","25.3","0.00","0.00"
"18:04:59","37.5","20.1","49.2","29.97","278","9.9","20.7","0.00","0.00"
"18:09:57","36.8","20","50.2","29.97","267","8.3","24.2","0.00","0.00"
"18:14:58","36.3","19.9","51","29.98","283","9.7","24.2","0.00","0.00"
"18:19:58","35.9","19.7","51.3","29.98","281","10.1","28.8","0.00","0.00"
"18:24:57","35.7","19.3","51","29.98","292","9.6","28.8","0.00","0.00"
"18:29:59","35.7","19.3","51","29.98","259","7.5","24.2","0.00","0.00"
"18:34:59","35.7","19.5","51.4","29.98","291","9.7","30","0.00","0.00"
"18:39:59","35.4","19.1","51.2","29.98","292","9.4","29.9","0.00","0.00"
"18:44:59","35.2","19.3","51.8","29.99","297","9.4","24.2","0.00","0.00"
"18:49:56","35","19","51.8","29.99","275","9.7","26.5","0.00","0.00"
"18:54:56","34.9","19.1","52.2","29.99","318","9.5","23","0.00","0.00"
"18:59:56","34.7","19","52.3","30.00","321","11","26.5","0.00","0.00"
"19:04:56","34.5","19","52.7","30.00","304","9.9","24.2","0.00","0.00"
"19:09:59","34.4","19.1","53.2","30.00","291","8","18.4","0.00","0.00"
"19:14:56","34.3","18.9","53","30.00","304","7.8","20.7","0.00","0.00"
"19:19:59","34.1","19","53.5","30.00","304","8.8","20.4","0.00","0.00"
"19:24:59","34","18.6","53","30.00","313","7.7","21.9","0.00","0.00"
"19:29:56","34","19","54","30.01","311","7.8","21.6","0.00","0.00"
"19:34:56","33.9","18.9","53.6","30.01","135","9.7","27.6","0.00","0.00"
"19:39:56","33.8","19.2","54.6","30.01","299","8.6","31.2","0.00","0.00"
"19:44:59","33.8","19","54.3","30.01","316","10.3","21.9","0.00","0.00"
"19:49:59","33.8","18.9","54.2","30.00","320","12.7","34.8","0.00","0.00"
"19:54:59","33.7","18.9","54.3","30.00","303","11.1","21.9","0.00","0.00"
"19:59:59","33.5","19","55","30.00","305","9.2","27.6","0.00","0.00"
"20:04:56","33.5","19","55","30.00","301","8.7","24.2","0.00","0.00"
"20:09:58","33.4","19.3","55.8","30.00","306","6.8","21.6","0.00","0.00"
"20:14:59","33.3","19.3","56","30.00","305","10.5","34.8","0.00","0.00"
"20:19:59","33.1","19.1","56","30.00","308","12.4","27.6","0.00","0.00"
"20:24:59","33","19","56","30.00","285","10.1","26.5","0.00","0.00"
"20:29:59","32.9","18.9","55.8","30.01","309","13","34.8","0.00","0.00"
"20:34:59","32.8","18.6","55.5","30.01","332","10.9","34.5","0.00","0.00"
"20:39:59","32.6","18.7","56.1","30.01","328","5.6","17.3","0.00","0.00"
"20:44:59","32.4","18.8","57","30.02","316","5.5","14.4","0.00","0.00"
"20:49:59","32.3","19","57.6","30.02","288","5.5","16.1","0.00","0.00"
"20:54:59","32.2","19.1","58","30.02","321","8.9","28.8","0.00","0.00"
"20:59:59","32.3","18.8","57","30.03","307","9.2","27.6","0.00","0.00"
"21:04:59","32.2","18.7","57.2","30.03","310","9.1","21.9","0.00","0.00"
"21:09:58","32.1","18.6","57","30.03","305","8","17.3","0.00","0.00"
"21:14:58","32","18.6","57.4","30.03","296","7.1","17.3","0.00","0.00"
"21:19:58","31.8","18.7","58","30.03","331","9.9","21.9","0.00","0.00"
"21:24:58","31.7","18.6","58","30.03","316","9.5","24.2","0.00","0.00"
"21:29:58","31.7","18.6","58","30.03","302","8","24.2","0.00","0.00"
"21:34:58","31.6","18.5","58","30.02","306","9.9","20.7","0.00","0.00"
"21:39:58","31.5","18.4","58","30.02","280","8.8","20.7","0.00","0.00"
"21:44:58","31.4","18.4","58.2","30.02","310","9.7","25.3","0.00","0.00"
"21:49:58","31.5","18.4","58","30.01","270","11.3","27.6","0.00","0.00"
"21:54:58","31.4","18.3","58","30.01","300","12.2","27.6","0.00","0.00"
"21:59:58","31.4","18.1","57.4","30.01","291","10.3","20.7","0.00","0.00"
"22:04:58","31.4","17.9","57","30.01","309","14.5","39.6","0.00","0.00"
"22:09:57","31.4","17.9","57.2","30.01","291","10.1","23","0.00","0.00"
"22:14:57","31.2","17.9","57.4","30.01","294","11.8","27.6","0.00","0.00"
"22:19:57","31.2","18","57.8","30.01","289","8.5","26.4","0.00","0.00"
"22:24:57","31.1","18","58","30.01","334","8.8","26.5","0.00","0.00"
"22:29:57","30.9","17.8","58","30.01","286","8","27.6","0.00","0.00"
"22:34:57","30.9","17.8","58.2","30.00","286","7.5","27.6","0.00","0.00"
"22:39:57","30.8","17.8","58.2","30.00","287","7.4","23","0.00","0.00"
"22:44:57","30.8","17.8","58.3","30.01","332","5.6","16.8","0.00","0.00"
"22:49:57","30.7","18.1","59","30.01","312","4.4","17.3","0.00","0.00"
"22:54:57","30.6","18","59","30.01","313","5.5","25.2","0.00","0.00"
"22:59:57","30.5","18.1","59.4","30.02","309","6.7","25.3","0.00","0.00"
"23:04:57","30.5","18.1","59.4","30.02","306","4.4","18.4","0.00","0.00"
"23:09:56","30.4","18.1","59.9","30.02","303","4.3","14.4","0.00","0.00"
"23:14:56","30.4","18.2","60","30.03","310","7.8","18.4","0.00","0.00"
"23:19:56","30.4","18.3","60.1","30.03","317","6.4","17.3","0.00","0.00"
"23:24:56","30.3","18.3","60.4","30.03","291","6.8","22.8","0.00","0.00"
"23:29:59","30.4","18.2","60.2","30.03","302","7.3","23","0.00","0.00"
"23:34:59","30.3","18.4","60.8","30.03","298","6.2","18.4","0.00","0.00"
"23:39:56","30.3","18.5","61","30.03","304","7.8","19.6","0.00","0.00"
"23:44:52","30.3","18.5","61","30.03","320","8.6","19.2","0.00","0.00"
